sat.trackr.live / text

‹ back to catalog

STARLINK-36684

NORAD 68718 · 2026-081V

PAYLOAD ACTIVE UNKNOWN

§ Identity

Operator
Country
US
Launch date
2026-04-14
Launch site
AFETR
Launch vehicle
Mass (kg)
RCS (m²)

Purposes: comms

External: N2YO · Heavens-Above · Gunter

§ Orbital elements

Epoch: 2026-05-25T04:00:03.998880Z

Period
93.40 min
Inclination
53.1610°
Eccentricity
0.0001048
Mean motion
15.41832449 rev/d
Perigee alt
440.0 km
Apogee alt
441.4 km
Semi-major
6,818.8 km
B*
-4.7045e-2
RAAN
38.8399°
Arg perigee
101.2394°
Mean anomaly
201.0892°
Rev number
595

§ Raw data

STARLINK-366841 68718U 26081V   26145.16671295 -.01823754  00000+0 -47045-1 0  99942 68718  53.1610  38.8399 0001048 101.2394 201.0892 15.41832449  5953

JSON: /api/v1/satellites/68718 · /tle

For live sub-satellite position, see the globe view (requires WebGL).

§ Visibility from observer

Set your observer location to see the next 7 days of passes ≥ 10°. The values pass through the URL so the page stays shareable.

No JS? Fill the form by hand. The geolocation button needs JavaScript.